Regional Weather Roundup
Issued by NWS

Home | Current Version | Previous Version | Graphics & Text | Print | Product List | Glossary On
Versions: 1 2 3 4 5 6 7 8 9 10 11 12 13 14 15 16 17 18 19 20 21 22 23 24 25 26 27 28 29 30 31 32 33 34 35 36 37 38 39 40 41 42 43 44 45 46 47 48 49 50
000
ASUS45 KCYS 280710
RWRWY

WYOMING REGIONAL WEATHER ROUNDUP
NATIONAL WEATHER SERVICE CHEYENNE WY
100 AM MDT TUE JUL 28 2015

NOTE:  "FAIR" INDICATES FEW OR NO CLOUDS BELOW 12,000 FEET
WITH NO SIGNIFICANT WEATHER AND/OR OBSTRUCTIONS TO VISIBILITY.

WYZ001-280800-
YELLOWSTONE NATIONAL PARK

CITY           SKY/WX    TMP DP  RH WIND       PRES   REMARKS
LK YELLOWSTONE   N/A     34  31  88 VRB5      30.27R WCI  30
W YELLOWSTONE  NOT AVBL

$$
WYZ002>013-054>058-071-098>099-280800-
NORTHERN WYOMING

CITY           SKY/WX    TMP DP  RH WIND       PRES   REMARKS
JACKSON        FAIR      41  39  93 CALM      30.25S
CODY           FAIR      54  30  40 W8        30.07R
GREYBULL       FAIR      54  45  71 CALM      30.02R
WORLAND        FAIR      48  44  86 NE3       30.03R
SHERIDAN       FAIR      51  45  79 W6        29.99R
BUFFALO        FAIR      49  44  83 CALM      30.01S
GILLETTE       FAIR      49  45  86 W8        29.97R
HULETT         FAIR      54  46  76 W9        29.96R
NEWCASTLE      FAIR      54  43  66 N14G24    29.95S

$$
WYZ014>020-022>026-101>103-280800-
CENTRAL WYOMING

CITY           SKY/WX    TMP DP  RH WIND       PRES   REMARKS
BIG PINEY      FAIR      37  25  61 N7        30.27R WCI  32
PINEDALE       FAIR      37  32  81 CALM      30.27S
DUBOIS         FAIR      37  32  81 NW14      30.18S WCI  29
LANDER         FAIR      52  24  33 CALM      30.08R
RIVERTON       FAIR      53  34  48 NW17G25   30.11R
CASPER         FAIR      52  34  50 SW12      30.06R
DOUGLAS        FAIR      55  47  74 N6        30.04R

$$
WYZ021-027>030-104>119-280800-
SOUTHERN WYOMING

CITY           SKY/WX    TMP DP  RH WIND       PRES   REMARKS
EVANSTON       FAIR      49  32  52 NW6       30.29S
KEMMERER       FAIR      45  23  42 W12       30.28S
FORT BRIDGER   SUNNY     46  34  61 W7        30.31R
ROCK SPRINGS   FAIR      55  33  43 W16       30.23R
DIXON          FAIR      46  32  56 E6        30.26S
RAWLINS        FAIR      54  29  38 W13       30.21R
SARATOGA       FAIR      50  30  46 SW10      30.25R
LARAMIE        FAIR      55  29  36 N3        30.18R
CHEYENNE       FAIR      64  32  30 NW26G40   30.06R
TORRINGTON     FAIR      69  35  28 N13       29.95R
PINE BLUFFS    FAIR      64  34  32 N12       30.01R

$$


USA.gov is the U.S. government's official web portal to all federal, state and local government web resources and services.